This is the latest recevied weather packets stored in our database for station/object SP1BMW-13. If no packets are shown the sender has not sent any weather packets the latest 10 day(s).
| Time | Temp. | Humidity | Pressure | Rain* | Wind** | Luminosity | Snow |
|---|---|---|---|---|---|---|---|
| 1787926758 | 23.89° C | 56% | 1009.1 hPa | 0 mm | 1.79 m/s, 38° | 246 W/m² | - |
| 1787926698 | 23.89° C | 57% | 1009.3 hPa | 0 mm | 1.34 m/s, 54° | 235 W/m² | - |
| 1787926638 | 23.89° C | 57% | 1009.1 hPa | 0 mm | 0.89 m/s, 58° | 223 W/m² | - |
| 1787926578 | 23.89° C | 56% | 1009.4 hPa | 0 mm | 2.24 m/s, 43° | 210 W/m² | - |
| 1787926518 | 23.89° C | 57% | 1009.3 hPa | 0 mm | 0 m/s | 208 W/m² | - |
| 1787926458 | 23.89° C | 56% | 1009.3 hPa | 0 mm | 1.79 m/s, 27° | 190 W/m² | - |
| 1787926398 | 23.89° C | 57% | 1009.2 hPa | 0 mm | 0.45 m/s, 51° | 175 W/m² | - |
| 1787926338 | 23.89° C | 55% | 1009.4 hPa | 0 mm | 1.79 m/s, 43° | 171 W/m² | - |
| 1787926277 | 23.89° C | 56% | 1009.5 hPa | 0 mm | 0.89 m/s, 39° | 169 W/m² | - |
| 1787926217 | 24.44° C | 56% | 1009.6 hPa | 0 mm | 1.34 m/s, 91° | 172 W/m² | - |
| 1787926158 | 24.44° C | 55% | 1009.4 hPa | 0 mm | 1.79 m/s, 100° | 182 W/m² | - |
| 1787926098 | 24.44° C | 56% | 1009.3 hPa | 0 mm | 0.89 m/s, 33° | 187 W/m² | - |
| 1787926038 | 24.44° C | 56% | 1009.5 hPa | 0 mm | 0.89 m/s, 67° | 198 W/m² | - |
| 1787925978 | 24.44° C | 55% | 1009.6 hPa | 0 mm | 1.79 m/s, 17° | 209 W/m² | - |
| 1787925918 | 24.44° C | 55% | 1009.5 hPa | 0 mm | 0.45 m/s, 252° | 233 W/m² | - |
| 1787925858 | 24.44° C | 55% | 1009.5 hPa | 0 mm | 1.79 m/s, 13° | 226 W/m² | - |
| 1787925798 | 24.44° C | 55% | 1009.5 hPa | 0 mm | 2.68 m/s, 345° | 227 W/m² | - |
| 1787925738 | 24.44° C | 55% | 1009.4 hPa | 0 mm | 1.34 m/s, 173° | 231 W/m² | - |
| 1787925678 | 24.44° C | 55% | 1009.3 hPa | 0 mm | 0.89 m/s, 48° | 237 W/m² | - |
| 1787925618 | 24.44° C | 56% | 1009.4 hPa | 0 mm | 1.34 m/s, 309° | 251 W/m² | - |
| 1787925558 | 23.89° C | 55% | 1009.3 hPa | 0 mm | 0.89 m/s, 25° | 247 W/m² | - |
| 1787925498 | 23.89° C | 56% | 1009.3 hPa | 0 mm | 0.89 m/s, 60° | 236 W/m² | - |
| 1787925438 | 23.89° C | 55% | 1009.3 hPa | 0 mm | 2.24 m/s, 48° | 230 W/m² | - |
| 1787925379 | 23.89° C | 55% | 1009.2 hPa | 0 mm | 1.79 m/s, 33° | 222 W/m² | - |
| 1787925318 | 23.89° C | 56% | 1009.3 hPa | 0 mm | 0.89 m/s, 118° | 220 W/m² | - |
* Rain latest hour (hover to see other rain measurements)
** Current wind speed in m/s (hover to see current wind gust speed)